[[{"header":{"parameterUnit":"m.s-1","parameterCategory":1,"la1":30.2991,"la2":30.254,"lo1":-89.0895,"lo2":-89.0444,"dy":0.0017,"dx":0.0017,"nx":28,"ny":28,"refTime":"2025-08-16T21:00:00:Z","depth":0,"parameterNumber":2,"parameterNumberName":"U-component_of_WINDS"},"data":[0,0,0,0,0,0,0,0,0,0,0,0,0,0,0,0,0,0,0,0,0,0,0,0,0,0,0,0,0,0,0,0,0,0,0,0,0,0,0,0,0,0,0,0,0,0,0,0,0,0,0,0,0,0,0,0,0,0,-0.0426,-0.0426,0,-0.0387,-0.0386,-0.0386,-0.0424,-0.0425,-0.0427,-0.0428,-0.0384,-0.0382,-0.0379,0,0,0,0,0,0,0,0,0,0,0,0,0,-0.0533,-0.0531,-0.0427,-0.0426,-0.0426,-0.0387,-0.0386,-0.0386,-0.0423,-0.0425,-0.0427,-0.0429,-0.0385,-0.0382,-0.0379,0,0,0,0,0,0,0,0,0,0,0,0,0,-0.0489,-0.053,-0.0427,-0.044,-0.0441,-0.0387,-0.0386,-0.0386,-0.0423,-0.0425,-0.0428,-0.043,-0.0386,-0.0382,-0.0379,-0.0309,0,0,-0.0367,-0.0365,0,0,0,0,0,0,0,0,-0.0492,-0.0486,-0.0438,-0.0439,-0.044,-0.0413,-0.0408,-0.036,-0.0422,-0.0429,-0.0428,-0.0431,-0.0392,-0.0387,-0.0375,-0.0307,-0.0305,-0.0366,-0.0364,-0.0362,-0.0361,0,0,0,0,0,0,0,-0.0495,-0.0487,-0.0411,-0.0438,-0.0438,-0.0447,-0.0443,-0.0399,-0.0398,-0.0429,-0.0432,-0.0427,-0.0392,-0.0379,-0.0374,-0.0304,-0.0366,-0.0363,-0.0361,-0.0359,-0.0179,-0.0177,0,0,0,0,0,0,-0.0497,-0.049,-0.0412,-0.041,-0.0472,-0.0443,-0.0439,-0.0419,-0.0399,-0.0398,-0.0425,-0.0429,-0.0384,-0.0379,-0.0373,-0.0291,-0.0362,-0.0359,-0.0357,-0.0182,-0.0179,-0.0176,0,0,0,0,0,0,-0.0499,-0.049,-0.0414,-0.045,-0.0441,-0.0439,-0.0416,-0.0417,-0.0403,-0.0396,-0.0395,-0.0411,-0.0386,-0.0378,-0.0325,-0.029,-0.0357,-0.0353,-0.0185,-0.0181,-0.0178,-0.0126,0,0,0,0,0,0,-0.0502,-0.049,-0.0464,-0.045,-0.0439,-0.0367,-0.0414,-0.0414,-0.0397,-0.0401,-0.0382,-0.0382,-0.0387,-0.0331,-0.0321,-0.0286,-0.035,-0.0188,-0.0183,-0.0179,-0.0131,-0.0121,-0.0113,0,0,0,0,0,-0.0506,-0.045,-0.0462,-0.0453,-0.0407,-0.0365,-0.0359,-0.0367,-0.0394,-0.0367,-0.0363,-0.0382,-0.0296,-0.0325,-0.0315,-0.0277,-0.019,-0.0184,-0.0179,-0.0135,-0.0123,-0.0113,0,0,0,0,0,0,-0.0458,-0.0448,-0.0462,-0.04,-0.0383,-0.0371,-0.0338,-0.0354,-0.0328,-0.0333,-0.0344,-0.0339,-0.0283,-0.0275,-0.0308,-0.021,-0.0247,-0.0239,-0.0217,-0.0206,-0.0197,-0.02,-0.0347,0,0,0,0,0,-0.0441,-0.0409,-0.0401,-0.0348,-0.0339,-0.034,-0.0322,-0.033,-0.0312,-0.0305,-0.0297,-0.0278,-0.0247,-0.0226,-0.0197,-0.0131,-0.0127,-0.01,-0.0091,-0.0084,-0.0076,-0.0042,-0.003,-0.0158,-0.0158,-0.0158,0,0,-0.0404,-0.0395,-0.0374,-0.0338,-0.0326,-0.0292,-0.0333,-0.0295,-0.027,-0.0299,-0.0249,-0.0242,-0.0222,-0.0163,-0.0136,-0.0154,-0.0041,-0.0077,-0.0071,-0.0067,-0.0035,-0.0023,-0.0012,-0.0154,-0.0155,-0.0156,0,0,-0.032,-0.031,-0.0265,-0.0252,-0.0234,-0.0236,-0.0225,-0.0211,-0.0208,-0.0158,-0.018,-0.015,-0.0096,-0.0081,-0.0067,0.002,0.0003,0.003,0.0078,0.0112,0.0122,0.0131,0.0161,0.0173,0.0037,0.0037,0.0037,0,-0.0277,-0.0227,-0.0239,-0.02,-0.0184,-0.021,-0.0164,-0.0152,-0.0124,-0.0112,-0.0134,-0.0068,-0.0056,0.0006,0.0027,0.004,0.0052,0.0029,0.0121,0.013,0.0138,0.0167,0.0179,0.004,0.004,0.004,0.0039,0,-0.0174,-0.014,-0.0105,-0.008,-0.006,-0.0018,-0.0023,-0.0001,-0.0012,-0.0011,0.0039,0.0052,0.0082,0.0096,0.0087,0.0157,0.0145,0.0123,0.0085,0.0154,0.0181,0.0192,0.0045,0.0044,0.0043,0.0042,0,0,-0.0057,-0.0041,-0.0028,-0.0018,-0.0001,0.0026,0.0067,0.0095,0.0114,0.0133,0.0167,0.0212,0.0191,0.0207,0.0199,0.0229,0.0296,0.0203,0.0203,0.022,0.0372,0.0389,0.0402,0.0284,0.0286,0.0288,0.037,0,0.0027,0.0097,0.0086,0.0154,0.0186,0.0159,0.0195,0.0209,0.021,0.0238,0.0239,0.0271,0.0241,0.025,0.0278,0.0282,0.0327,0.0276,0.0316,0.0317,0.0312,0.0416,0.0435,0.0512,0.0381,0.0383,0.0384,0,0.0136,0.0157,0.0227,0.0237,0.025,0.0282,0.0306,0.0333,0.0348,0.0347,0.0364,0.035,0.039,0.0351,0.0407,0.0373,0.0388,0.0392,0.0395,0.0399,0.0355,0.0423,0.0537,0.0549,0.0401,0.04,0.0398,0,0.0214,0.026,0.0307,0.0317,0.0331,0.0353,0.036,0.0373,0.039,0.0411,0.0422,0.0449,0.0463,0.0484,0.0477,0.0449,0.0534,0.0495,0.0534,0.0534,0.0554,0.0553,0.0672,0.0563,0.0563,0.0563,0.0563,0,0.031,0.0354,0.0342,0.0372,0.042,0.0407,0.0455,0.0459,0.047,0.05,0.0479,0.0507,0.0497,0.0524,0.0519,0.0566,0.0573,0.0573,0.0571,0.0575,0.0575,0.0585,0.058,0.0566,0.0565,0.0565,0.0564,0,0.0406,0.04,0.045,0.0457,0.046,0.0495,0.0502,0.053,0.0528,0.0566,0.0574,0.0572,0.0603,0.0598,0.0633,0.063,0.0687,0.0679,0.0682,0.068,0.072,0.0716,0.085,0.0867,0.0748,0.0749,0.075,0,0.0468,0.05,0.0511,0.0528,0.0536,0.0565,0.0582,0.057,0.0588,0.0607,0.0632,0.0661,0.0684,0.0735,0.0737,0.0763,0.0755,0.08,0.0759,0.0761,0.0756,0.0754,0.0757,0.0809,0.081,0.0811,0.0812,0,0.0578,0.0573,0.0597,0.062,0.064,0.0658,0.0674,0.069,0.0679,0.0701,0.0732,0.0749,0.0783,0.0812,0.0836,0.0844,0.0826,0.0825,0.0835,0.084,0.084,0.084,0.0704,0.0822,0.0821,0.082,0.082,0.0819,0.0659,0.0686,0.0697,0.0725,0.0735,0.075,0.0775,0.0776,0.0801,0.0828,0.0819,0.0854,0.0866,0.0897,0.0906,0.0933,0.0917,0.0932,0.0936,0.094,0.0945,0.0835,0.0938,0.0937,0.0937,0.0937,0.0937,0,0.0768,0.0773,0.0798,0.082,0.0841,0.0821,0.0837,0.0857,0.0887,0.09,0.0922,0.0957,0.0984,0.0987,0.1013,0.1034,0.1026,0.1041,0.1039,0.1041,0.0958,0.0946,0.1046,0.1046,0.1046,0.1046,0.1046,0.1046,0.0827,0.0872,0.0868,0.0917,0.0922,0.0955,0.0966,0.0979,0.0989,0.1029,0.105,0.1052,0.106,0.1086,0.111,0.111,0.1121,0.1138,0.1135,0.1058,0.1047,0.1037,0.1026,0.1141,0.1141,0.1216,0.1217,0.1217]},{"header":{"parameterUnit":"m.s-1","parameterCategory":1,"la1":30.2991,"la2":30.254,"lo1":-89.0895,"lo2":-89.0444,"dy":0.0017,"dx":0.0017,"nx":28,"ny":28,"refTime":"2025-08-16T21:00:00:Z","depth":0,"parameterNumber":3,"parameterNumberName":"V-component_of_WINDS"},"data":[0,0,0,0,0,0,0,0,0,0,0,0,0,0,0,0,0,0,0,0,0,0,0,0,0,0,0,0,0,0,0,0,0,0,0,0,0,0,0,0,0,0,0,0,0,0,0,0,0,0,0,0,0,0,0,0,0,0,1.0994,1.0994,0,1.1024,1.1025,1.1025,1.097,1.0969,1.0967,1.0965,1.0997,1.0999,1.1002,0,0,0,0,0,0,0,0,0,0,0,0,0,1.0887,1.0889,1.0994,1.0994,1.0995,1.1024,1.1025,1.1025,1.0971,1.0969,1.0966,1.0964,1.0996,1.0999,1.1002,0,0,0,0,0,0,0,0,0,0,0,0,0,1.0927,1.089,1.0994,1.0971,1.0969,1.1024,1.1025,1.1025,1.0971,1.0968,1.0966,1.0963,1.0995,1.0998,1.1002,1.1081,0,0,1.1014,1.1016,0,0,0,0,0,0,0,0,1.0925,1.0931,1.0974,1.0973,1.0971,1.0991,1.0998,1.1044,1.0972,1.0971,1.0965,1.0962,1.0997,1.1,1.1012,1.1082,1.1084,1.1014,1.1017,1.1018,1.1019,0,0,0,0,0,0,0,1.0922,1.0929,1.1006,1.0975,1.0973,1.0959,1.0961,1.1007,1.0999,1.097,1.0967,1.0971,1.0995,1.1009,1.1012,1.1084,1.1014,1.1018,1.102,1.1021,1.1215,1.1218,0,0,0,0,0,0,1.0922,1.0927,1.1005,1.1007,1.0941,1.0963,1.0966,1.0987,1.0998,1.0997,1.0973,1.0968,1.1003,1.1008,1.1013,1.1102,1.1018,1.1022,1.1024,1.1212,1.1215,1.1219,0,0,0,0,0,0,1.092,1.093,1.1004,1.0966,1.0974,1.0968,1.0992,1.0989,1.1002,1.1,1.0998,1.0988,1.1001,1.1008,1.1063,1.1102,1.1023,1.1027,1.1209,1.1213,1.1217,1.1282,0,0,0,0,0,0,1.0917,1.0929,1.096,1.0967,1.0977,1.1054,1.0995,1.0992,1.1009,1.1003,1.1014,1.1013,1.1,1.1058,1.1067,1.1106,1.103,1.1205,1.1211,1.1216,1.1276,1.1288,1.1298,0,0,0,0,0,1.0914,1.0978,1.0961,1.0971,1.1014,1.1056,1.1061,1.1045,1.1012,1.1042,1.104,1.1012,1.1097,1.1064,1.1074,1.1115,1.1202,1.1209,1.1215,1.1271,1.1286,1.1298,0,0,0,0,0,0,1.0976,1.0978,1.096,1.1029,1.1043,1.1047,1.1084,1.1061,1.1085,1.1078,1.1057,1.106,1.1118,1.1123,1.1085,1.1189,1.1144,1.1153,1.1183,1.1197,1.1208,1.1204,1.1033,0,0,0,0,0,1.0998,1.1032,1.1032,1.1093,1.11,1.1091,1.1109,1.1095,1.1108,1.1114,1.1116,1.113,1.1159,1.1179,1.1206,1.1278,1.1277,1.131,1.1321,1.133,1.1337,1.137,1.1384,1.124,1.124,1.1239,0,0,1.1043,1.1049,1.1072,1.1105,1.1114,1.1148,1.1096,1.1136,1.116,1.112,1.117,1.1173,1.1187,1.1249,1.1277,1.1254,1.1377,1.1338,1.1345,1.1347,1.1378,1.1392,1.1404,1.1244,1.1243,1.1243,0,0,1.1142,1.1151,1.12,1.1209,1.1223,1.1216,1.1228,1.1235,1.1234,1.1285,1.1254,1.1283,1.1336,1.1345,1.1357,1.1457,1.143,1.1467,1.1522,1.1555,1.1566,1.1576,1.1607,1.1619,1.1474,1.1474,1.1474,0,1.1196,1.1247,1.1228,1.1268,1.1282,1.1247,1.1294,1.1305,1.1327,1.1337,1.1312,1.1374,1.1381,1.1443,1.1467,1.1479,1.149,1.1464,1.1566,1.1576,1.1585,1.1614,1.1627,1.1478,1.1478,1.1477,1.1477,0,1.131,1.1346,1.1384,1.1403,1.1422,1.1467,1.1454,1.1475,1.1459,1.1454,1.1505,1.1512,1.1538,1.1553,1.1539,1.1612,1.1596,1.157,1.1523,1.1602,1.163,1.1641,1.1484,1.1482,1.1481,1.148,0,0,1.1449,1.1456,1.147,1.1477,1.1488,1.1514,1.1556,1.1581,1.1597,1.1614,1.1646,1.169,1.1663,1.1677,1.1664,1.1693,1.1766,1.1662,1.1661,1.1677,1.1842,1.1859,1.1873,1.175,1.1752,1.1754,1.1839,0,1.1543,1.1613,1.1597,1.1666,1.1696,1.1661,1.1697,1.1707,1.1704,1.1728,1.1725,1.1754,1.172,1.1727,1.1755,1.1751,1.1798,1.1746,1.1777,1.1779,1.1771,1.1888,1.1907,1.1987,1.185,1.1852,1.1854,0,1.1663,1.1681,1.1752,1.1754,1.1767,1.1799,1.1818,1.1843,1.1853,1.1848,1.1862,1.1842,1.1881,1.1837,1.1889,1.1853,1.1866,1.1866,1.1869,1.1868,1.1818,1.1886,1.2013,1.2023,1.1871,1.187,1.1868,0,1.175,1.1794,1.184,1.1848,1.1854,1.1876,1.1879,1.1887,1.1901,1.1918,1.1927,1.1949,1.1961,1.1978,1.1963,1.1934,1.2016,1.1972,1.2011,1.2011,1.2027,1.2025,1.2153,1.2042,1.2042,1.2042,1.2041,0,1.1855,1.1899,1.1879,1.1908,1.1955,1.1936,1.1983,1.1982,1.1989,1.2015,1.1989,1.2014,1.1996,1.202,1.2009,1.2051,1.2058,1.2053,1.2049,1.2053,1.2053,1.2059,1.2051,1.2045,1.2044,1.2044,1.2043,0,1.196,1.1949,1.1997,1.1997,1.1998,1.2033,1.2033,1.2058,1.2052,1.2086,1.2093,1.2084,1.211,1.2099,1.2127,1.212,1.2173,1.2164,1.2169,1.2165,1.2202,1.2197,1.2334,1.235,1.2233,1.2234,1.2235,0,1.2026,1.2058,1.2061,1.2076,1.2081,1.2107,1.212,1.2102,1.2118,1.213,1.2153,1.2177,1.2195,1.2238,1.2233,1.2254,1.2243,1.2289,1.2245,1.2247,1.2238,1.2235,1.2236,1.2297,1.2298,1.2299,1.23,0,1.2142,1.2133,1.2154,1.2172,1.2189,1.2202,1.2214,1.2228,1.221,1.2229,1.2254,1.2268,1.2295,1.2318,1.2336,1.2338,1.2315,1.2315,1.2324,1.2326,1.2326,1.2322,1.2188,1.2311,1.231,1.2309,1.2308,1.2308,1.2226,1.2251,1.2256,1.2278,1.2285,1.2295,1.2318,1.2314,1.2335,1.2354,1.2343,1.2372,1.2379,1.24,1.2405,1.2427,1.2408,1.2423,1.2426,1.2429,1.2431,1.2326,1.2431,1.2431,1.243,1.243,1.243,0,1.2336,1.2337,1.2358,1.2373,1.239,1.2368,1.2378,1.2394,1.2419,1.2427,1.2444,1.2472,1.2494,1.249,1.2509,1.2527,1.2517,1.2533,1.2529,1.2529,1.2449,1.2437,1.254,1.254,1.254,1.254,1.254,1.254,1.2395,1.2435,1.2427,1.247,1.247,1.2497,1.2505,1.2513,1.2519,1.2551,1.2568,1.2565,1.2568,1.2586,1.2604,1.2603,1.2609,1.2628,1.2622,1.2546,1.2535,1.2525,1.2513,1.263,1.263,1.2699,1.27,1.27]}]]